CCM006 LFKJ-LFML

Flight info

Callsign CCM006
Flight time N/A
Altitude 18000
Route VAREK W54 STP A3 RUBIT G7 LANKO
Aircraft B772/H-SDE2E3FGHIJ5LORVWXY/LB1D1

Departure

Time 2026-05-08 19:56
Airport Ajaccio Napoléon Bonaparte airport (LFKJ)

Arrival

Time N/A
Airport Marseille Provence Airport (LFML)
Time Latitude Longitude Altitude Speed Heading
2026-05-08 19:36 41.92068 8.79638 40 ft 0 kts 345°
2026-05-08 19:48 41.92074 8.79638 40 ft 1 kts 15°
2026-05-08 19:48 41.92082 8.79651 40 ft 4 kts 63°
2026-05-08 19:48 41.92101 8.79712 40 ft 9 kts 57°
2026-05-08 19:48 41.92166 8.79775 40 ft 13 kts 27°
2026-05-08 19:49 41.92181 8.79785 40 ft 0 kts 27°
2026-05-08 19:49 41.92184 8.79787 40 ft 2 kts 26°
2026-05-08 19:50 41.92215 8.79806 40 ft 7 kts 25°
2026-05-08 19:50 41.92277 8.79844 40 ft 12 kts 25°
2026-05-08 19:50 41.92366 8.79899 40 ft 16 kts 24°
2026-05-08 19:50 41.92459 8.79957 40 ft 11 kts 26°
2026-05-08 19:51 41.92543 8.80012 41 ft 15 kts 25°
2026-05-08 19:51 41.92652 8.80080 41 ft 18 kts 25°
2026-05-08 19:51 41.92753 8.80150 42 ft 14 kts 33°
2026-05-08 19:51 41.92845 8.80248 43 ft 18 kts 42°
2026-05-08 19:52 41.92928 8.80360 44 ft 14 kts 49°
2026-05-08 19:52 41.92959 8.80433 44 ft 0 kts 79°
2026-05-08 19:55 41.92960 8.80450 44 ft 6 kts 91°
2026-05-08 19:56 41.92937 8.80529 44 ft 12 kts 139°
2026-05-08 19:56 41.92814 8.80518 44 ft 43 kts 203°
2026-05-08 19:56 41.92149 8.80087 85 ft 153 kts 208°
2026-05-08 19:56 41.91145 8.79385 1146 ft 170 kts 215°
2026-05-08 19:57 41.90269 8.78568 2307 ft 154 kts 216°
2026-05-08 19:57 41.89331 8.77711 2884 ft 177 kts 215°
2026-05-08 19:57 41.88144 8.76662 3021 ft 221 kts 214°